Wind_Speed
20 21 22 22 21 21 21 21 21 20 21 22 22 21 22 22 21 21 20 19 19 19 19 19 19 19 18 18 18 18 18 18 18 18 18 18 17 17 17 16 16 16 15 15
22 22 23 24 22 22 23 22 23 23 22 23 23 22 22 22 22 21 20 20 20 19 19 19 19 19 19 18 18 19 19 19 19 18 18 18 18 18 18 18 17 17 16 16
23 23 24 25 22 22 23 22 23 24 23 23 24 23 23 23 22 22 21 21 20 20 20 19 19 19 19 19 19 19 19 19 20 19 19 18 18 19 19 19 19 18 18 18
24 24 26 24 23 23 24 24 24 24 24 25 25 24 25 24 23 23 23 23 22 21 21 21 21 21 21 20 20 20 20 20 20 21 20 20 20 20 20 20 19 20 19 20
25 25 26 26 25 25 25 24 24 25 25 25 26 25 26 25 24 25 24 23 24 23 23 22 22 22 23 23 22 22 22 21 22 22 22 22 21 21 21 20 20 20 20 20
26 27 28 27 27 26 27 27 25 26 26 26 26 27 27 26 26 25 25 25 25 25 25 25 24 25 24 24 24 23 23 23 23 24 24 23 23 22 22 21 21 21 21 20
27 28 29 28 28 27 28 28 27 28 28 27 28 28 28 27 27 27 27 27 27 27 27 27 26 26 26 26 25 25 24 25 25 25 24 24 24 24 24 23 22 22 22 22
28 29 30 29 30 30 29 29 30 29 29 29 29 29 29 28 28 28 28 29 28 29 29 28 28 28 28 27 27 27 27 27 26 27 26 26 26 26 26 25 25 24 24 24
30 30 30 30 31 31 32 31 30 30 29 29 29 30 30 30 30 30 30 31 30 30 30 29 29 29 29 28 28 29 29 29 29 29 28 28 27 27 26 27 26 26 26 25
32 32 33 33 33 32 31 31 31 31 30 30 31 31 32 32 32 32 32 32 32 31 30 29 29 29 29 29 29 30 30 30 30 29 29 29 29 29 28 28 28 28 27 27
34 34 34 34 34 34 33 33 33 33 33 33 33 33 34 33 33 33 33 33 33 33 32 31 31 31 31 31 30 30 30 30 30 30 30 30 30 29 29 29 29 29 28 28
35 35 35 35 35 35 35 34 33 33 33 33 33 33 33 33 33 34 34 34 34 34 34 33 33 33 32 32 32 32 31 31 31 31 31 31 31 31 31 31 31 30 30 30
36 36 36 35 35 35 35 34 34 34 34 34 35 34 33 33 34 34 34 35 35 35 35 35 35 35 34 34 33 33 32 32 32 33 33 32 33 33 32 32 32 32 32 31
36 37 37 36 36 36 35 35 35 35 34 34 34 33 33 34 34 34 34 35 35 35 36 36 36 36 36 36 35 35 34 34 34 34 34 34 34 34 34 34 33 33 34 34
37 37 36 36 36 36 36 36 35 35 35 34 34 35 35 35 35 35 34 34 35 35 36 36 37 37 37 37 37 36 35 35 35 35 34 35 35 35 34 34 35 34 35 36
36 35 35 36 36 35 35 35 35 35 35 35 35 35 35 35 35 34 34 34 35 35 35 36 36 37 37 36 36 36 36 36 36 35 35 35 35 35 35 35 35 35 35 35
34 34 34 34 35 35 35 35 35 35 35 35 34 34 34 34 34 34 34 35 35 35 35 35 35 36 36 36 36 35 35 36 36 35 35 35 36 36 36 36 36 36 36 36
33 33 33 32 32 33 34 34 35 34 34 35 34 34 33 33 33 34 34 35 35 35 35 35 35 35 35 35 35 34 34 35 35 35 35 35 36 36 36 36 37 37 36 36
33 33 33 33 33 33 34 34 34 34 34 33 33 32 32 33 33 33 33 33 33 33 33 34 34 34 35 34 33 33 34 34 34 33 34 35 36 36 36 37 37 37 36 36
32 33 33 33 33 34 33 33 33 33 33 32 32 32 33 33 33 33 33 32 32 32 32 32 33 33 33 33 33 34 34 33 33 33 34 35 35 35 35 35 36 37 37 36
31 31 32 33 33 33 33 33 33 34 33 33 33 33 33 33 33 32 32 31 31 31 31 31 31 31 32 32 33 33 33 34 33 33 34 35 35 35 35 36 36 36 37 37
32 32 32 33 34 34 33 33 34 34 34 34 34 34 34 34 33 33 32 31 31 31 31 31 30 30 31 32 32 33 33 33 33 33 34 35 35 35 35 35 36 36 37 37
32 32 33 33 33 32 33 33 34 34 34 34 34 34 35 34 33 32 32 32 32 31 31 31 31 31 31 32 32 33 33 32 32 31 32 33 33 33 34 34 34 35 35 35
32 32 33 33 33 33 33 33 33 34 34 35 34 34 34 33 32 31 31 32 32 32 32 31 31 31 31 31 31 32 32 32 31 31 31 32 33 33 33 33 34 35 35 35
33 33 34 34 33 33 33 33 32 32 32 32 33 32 32 32 31 31 30 30 30 30 31 31 31 31 31 31 30 30 31 32 31 31 31 31 32 33 33 33 34 35 35 35
33 33 33 33 33 33 33 33 32 32 32 32 31 30 30 30 30 30 30 30 30 29 29 29 29 30 30 30 30 30 30 31 32 31 31 32 33 33 33 34 34 35 35 34
33 33 33 33 33 33 32 32 32 32 31 31 30 30 29 29 29 29 29 29 29 30 30 30 30 31 31 30 30 30 30 30 30 30 31 32 33 34 34 34 34 35 35 35
Wind_Direction
263 265 268 269 269 269 270 271 271 268 265 266 270 272 273 274 276 275 273 271 270 270 269 269 268 267 266 266 266 266 264 264 264 265 266 267 270 271 272 274 274 273 274 276
263 265 266 268 269 270 269 271 271 270 267 269 271 271 274 274 275 274 273 272 270 269 269 270 268 268 266 267 267 266 263 262 265 265 265 266 267 269 271 271 272 273 270 273
267 267 269 268 271 271 271 270 271 270 270 268 270 271 273 274 274 273 273 270 269 268 268 268 268 269 268 267 267 266 265 264 264 265 264 265 267 269 271 271 270 271 270 271
271 270 268 271 270 271 271 273 273 272 272 272 272 271 271 271 271 273 272 269 268 267 267 269 268 268 269 268 266 266 264 262 263 263 263 264 266 269 272 271 270 270 272 271
273 272 272 270 271 272 272 272 273 273 273 274 272 270 271 272 271 271 270 269 268 267 267 268 268 268 270 270 269 267 267 265 263 263 264 265 266 267 269 270 270 269 270 271
273 273 274 273 272 273 274 272 272 273 272 273 271 270 271 273 272 271 269 269 269 268 269 269 268 269 270 270 270 269 267 265 264 264 264 266 266 266 268 269 270 269 269 271
273 273 275 274 274 274 274 275 275 275 273 274 271 270 271 272 273 271 271 270 270 269 270 269 268 268 269 269 269 268 267 265 264 264 264 265 266 266 267 267 269 270 269 270
273 272 273 276 276 274 274 273 275 275 275 274 272 271 270 270 271 272 272 271 270 269 269 269 268 268 269 269 269 268 267 266 265 264 263 264 265 266 266 267 268 269 269 270
270 272 274 275 275 274 275 275 275 274 274 273 273 272 270 270 271 270 270 270 269 270 269 268 268 268 268 268 268 268 267 267 266 265 262 262 264 264 266 266 267 269 269 270
270 271 272 273 272 272 273 274 273 272 270 270 271 271 272 271 271 270 270 269 269 268 268 269 269 268 268 268 268 267 267 266 266 265 263 263 264 265 265 266 267 269 269 269
271 273 273 273 273 273 272 272 271 270 271 272 273 273 273 272 272 271 270 269 268 267 267 268 268 267 267 267 267 267 267 266 265 265 264 263 264 264 265 266 267 268 269 269
272 273 273 273 273 273 272 272 270 270 271 272 272 273 273 273 272 271 271 270 269 268 267 267 268 268 267 267 267 267 267 266 265 265 265 263 263 263 264 265 266 267 268 269
273 273 272 271 271 272 271 270 270 271 272 271 271 272 272 272 272 271 270 270 269 268 268 268 268 268 267 267 266 267 266 265 265 265 265 264 264 264 264 264 265 267 267 267
273 272 271 271 271 271 271 271 270 271 272 272 271 272 272 271 271 271 270 271 271 269 269 268 268 267 266 266 265 265 266 266 265 264 265 265 265 264 264 264 265 265 266 266
274 274 274 272 271 270 270 270 270 271 271 271 272 272 272 272 271 270 270 271 271 271 270 269 268 267 266 264 264 264 264 264 264 264 264 264 264 263 263 264 265 265 266 267
275 274 274 273 272 271 270 270 271 271 271 271 271 271 271 271 270 269 270 271 272 272 271 270 269 269 267 265 263 263 263 264 264 263 263 263 263 262 262 263 266 267 268 269
275 274 273 273 272 271 270 270 270 271 271 271 271 271 271 271 271 271 271 271 272 272 271 270 270 269 268 266 264 264 263 263 263 262 262 262 262 263 263 264 266 267 268 270
277 277 276 273 271 271 271 271 270 270 270 271 272 271 270 271 272 272 272 272 272 272 271 271 270 269 268 266 265 264 264 264 264 263 262 262 262 263 263 265 266 267 269 270
277 277 277 274 272 271 272 272 271 271 270 270 271 272 272 272 272 272 273 273 273 272 272 271 270 269 267 265 265 265 265 265 265 263 263 263 263 264 264 265 267 268 268 268
277 277 277 275 274 273 273 272 271 271 271 271 271 272 273 273 273 273 273 273 273 274 273 272 271 269 267 266 265 264 264 265 265 264 264 263 263 264 265 266 268 269 268 268
277 277 276 275 275 275 273 272 271 271 272 272 272 272 271 272 272 272 272 273 272 272 273 274 272 270 269 267 266 265 265 264 264 263 264 263 263 264 265 267 268 268 268 268
276 276 276 276 276 276 275 274 272 271 272 271 272 272 272 272 271 271 271 271 271 271 272 272 272 271 270 268 267 266 265 265 265 265 264 265 265 265 265 267 268 268 268 268
278 278 278 277 278 278 277 276 274 272 272 272 273 272 272 271 269 269 269 269 270 271 272 271 271 271 271 270 269 267 266 267 266 265 264 264 264 265 266 267 267 268 269 269
280 279 279 279 279 279 279 278 277 275 273 273 273 273 272 271 268 267 268 269 269 269 271 271 270 270 270 270 269 268 267 267 266 264 264 264 264 265 266 268 269 269 269 270
280 280 280 280 280 280 280 278 276 275 273 273 272 272 270 269 269 267 267 269 269 269 269 268 268 269 269 269 270 270 269 268 266 265 264 264 265 266 268 270 270 269 269 271
281 280 281 281 280 280 279 277 275 273 273 272 272 272 271 269 268 268 268 269 268 268 268 268 269 269 269 268 269 270 270 268 267 266 265 266 268 269 270 271 271 270 270 271
282 282 282 281 280 280 279 277 275 274 273 271 269 269 269 269 269 268 268 268 267 267 269 270 270 271 270 268 268 268 268 267 266 266 266 267 270 272 272 273 272 270 271 271
Height
5814 5814 5814 5814 5815 5815 5815 5814 5815 5815 5815 5815 5814 5813 5813 5813 5813 5813 5814 5814 5814 5815 5815 5814 5815 5816 5816 5816 5817 5817 5818 5819 5819 5820 5820 5821 5821 5822 5822 5823 5823 5823 5823 5824
5808 5808 5808 5808 5809 5809 5809 5809 5809 5809 5810 5809 5808 5808 5808 5808 5808 5808 5808 5809 5809 5809 5809 5809 5810 5810 5811 5811 5812 5812 5813 5814 5814 5815 5816 5816 5817 5817 5818 5818 5818 5819 5819 5819
5802 5802 5801 5802 5804 5803 5803 5803 5803 5803 5804 5803 5802 5802 5802 5802 5802 5803 5803 5803 5804 5804 5804 5803 5804 5805 5805 5806 5806 5807 5807 5808 5809 5809 5810 5811 5812 5812 5813 5813 5813 5814 5814 5814
5795 5796 5795 5799 5797 5797 5796 5796 5796 5796 5796 5796 5796 5796 5796 5796 5796 5796 5797 5797 5798 5798 5798 5797 5798 5799 5799 5799 5800 5800 5801 5802 5803 5803 5804 5806 5806 5807 5807 5807 5808 5808 5809 5809
5788 5788 5788 5791 5790 5790 5789 5790 5790 5789 5789 5789 5789 5789 5789 5789 5790 5789 5790 5791 5791 5791 5791 5791 5792 5792 5793 5793 5793 5794 5794 5795 5796 5797 5798 5799 5800 5801 5801 5802 5802 5803 5803 5803
5782 5781 5781 5784 5783 5782 5782 5782 5783 5782 5781 5781 5781 5781 5782 5782 5782 5782 5783 5784 5784 5784 5784 5784 5785 5785 5786 5786 5786 5787 5787 5788 5789 5790 5791 5792 5793 5794 5795 5795 5796 5797 5797 5798
5775 5773 5774 5776 5775 5775 5776 5776 5774 5773 5773 5773 5773 5773 5774 5774 5774 5774 5775 5776 5776 5776 5776 5776 5776 5777 5778 5778 5779 5779 5780 5780 5781 5782 5783 5785 5786 5787 5788 5789 5790 5790 5791 5791
5767 5766 5768 5767 5766 5766 5766 5766 5765 5764 5764 5765 5765 5765 5765 5766 5766 5766 5767 5768 5768 5768 5768 5768 5768 5769 5770 5770 5771 5771 5772 5772 5773 5774 5775 5777 5778 5779 5780 5781 5783 5783 5784 5784
5760 5761 5760 5759 5757 5757 5757 5757 5756 5756 5756 5756 5756 5757 5757 5758 5758 5758 5759 5759 5759 5760 5760 5760 5760 5760 5761 5762 5762 5762 5763 5764 5765 5765 5767 5768 5770 5771 5772 5774 5775 5776 5776 5777
5751 5751 5751 5750 5749 5749 5748 5748 5748 5747 5747 5748 5748 5748 5748 5748 5749 5749 5750 5750 5750 5751 5751 5751 5751 5752 5752 5753 5753 5753 5754 5755 5756 5757 5758 5760 5761 5762 5764 5765 5766 5767 5768 5768
5742 5743 5742 5741 5740 5740 5739 5739 5739 5739 5739 5739 5739 5739 5739 5739 5739 5740 5740 5740 5740 5741 5742 5742 5743 5743 5743 5744 5744 5744 5745 5746 5747 5748 5749 5751 5752 5754 5755 5756 5757 5758 5759 5759
5734 5734 5733 5732 5731 5731 5730 5730 5730 5730 5730 5730 5729 5729 5729 5729 5729 5730 5730 5730 5731 5731 5732 5732 5733 5733 5734 5734 5734 5735 5736 5737 5738 5739 5740 5741 5743 5745 5746 5747 5748 5749 5749 5750
5724 5723 5723 5722 5721 5721 5721 5721 5721 5720 5720 5720 5720 5719 5719 5719 5719 5719 5720 5720 5720 5721 5721 5722 5722 5723 5724 5724 5724 5725 5726 5727 5728 5729 5730 5732 5733 5734 5736 5737 5738 5739 5739 5740
5714 5713 5712 5712 5712 5711 5711 5710 5710 5710 5710 5710 5709 5709 5709 5708 5709 5709 5709 5710 5710 5710 5710 5711 5711 5712 5712 5713 5713 5714 5715 5716 5718 5719 5720 5721 5723 5724 5725 5726 5728 5728 5729 5729
5704 5702 5702 5701 5701 5701 5700 5700 5700 5700 5700 5699 5699 5698 5698 5698 5698 5699 5699 5699 5699 5699 5699 5700 5700 5701 5701 5702 5702 5703 5704 5705 5707 5708 5709 5710 5712 5713 5714 5715 5716 5717 5718 5718
5693 5692 5691 5691 5691 5690 5690 5690 5690 5689 5689 5689 5688 5688 5687 5687 5687 5688 5688 5688 5688 5688 5688 5688 5689 5689 5689 5690 5691 5692 5693 5694 5695 5697 5698 5699 5701 5702 5703 5704 5705 5706 5707 5707
5683 5682 5682 5681 5681 5680 5680 5680 5679 5679 5679 5678 5678 5677 5677 5677 5677 5677 5677 5677 5677 5677 5677 5677 5678 5678 5678 5678 5679 5680 5681 5683 5684 5685 5687 5688 5689 5690 5692 5693 5694 5695 5696 5695
5673 5672 5671 5671 5671 5670 5670 5669 5669 5669 5668 5668 5667 5667 5667 5667 5667 5667 5666 5666 5666 5666 5667 5666 5667 5667 5667 5667 5668 5669 5670 5671 5673 5674 5675 5677 5678 5679 5680 5681 5682 5683 5684 5684
5663 5662 5662 5661 5660 5660 5660 5659 5659 5658 5658 5658 5658 5658 5657 5657 5657 5656 5656 5656 5656 5656 5656 5656 5656 5656 5656 5656 5657 5659 5660 5661 5662 5663 5664 5666 5667 5668 5669 5670 5670 5671 5671 5672
5653 5652 5652 5651 5650 5650 5649 5649 5648 5648 5648 5648 5648 5648 5648 5647 5647 5647 5647 5646 5646 5646 5646 5646 5646 5646 5646 5646 5647 5648 5649 5650 5651 5652 5653 5654 5655 5656 5657 5658 5658 5658 5659 5659
5644 5643 5642 5641 5641 5640 5639 5639 5638 5639 5638 5638 5638 5638 5637 5637 5637 5637 5637 5637 5637 5636 5636 5636 5636 5636 5636 5636 5637 5638 5638 5639 5640 5641 5642 5642 5644 5644 5645 5646 5646 5646 5647 5647
5634 5633 5632 5632 5631 5630 5629 5629 5628 5628 5628 5628 5628 5627 5627 5627 5627 5627 5627 5627 5627 5627 5627 5626 5626 5626 5626 5627 5627 5627 5628 5629 5629 5630 5630 5631 5632 5633 5633 5634 5634 5634 5635 5635
5625 5624 5623 5622 5621 5620 5619 5619 5618 5618 5618 5618 5617 5617 5616 5616 5617 5617 5617 5617 5617 5617 5617 5617 5617 5616 5616 5616 5617 5617 5617 5618 5618 5619 5619 5620 5621 5621 5622 5622 5622 5622 5622 5622
5615 5614 5613 5612 5611 5610 5609 5608 5608 5607 5607 5607 5606 5606 5605 5605 5606 5606 5606 5607 5607 5607 5607 5607 5607 5606 5606 5606 5607 5607 5607 5607 5608 5608 5609 5609 5610 5610 5611 5611 5611 5611 5611 5611
5605 5604 5603 5602 5601 5600 5599 5598 5597 5596 5596 5595 5595 5595 5594 5595 5595 5595 5596 5596 5596 5596 5596 5596 5596 5596 5596 5596 5597 5597 5597 5597 5597 5598 5599 5599 5599 5599 5600 5600 5600 5599 5599 5599
5595 5594 5593 5591 5590 5589 5588 5587 5586 5586 5585 5585 5585 5585 5585 5585 5585 5585 5586 5586 5586 5586 5586 5586 5586 5586 5586 5586 5587 5587 5587 5587 5587 5588 5588 5589 5589 5589 5589 5589 5589 5588 5588 5588
5585 5584 5582 5581 5580 5579 5578 5577 5576 5576 5575 5575 5575 5575 5575 5575 5576 5576 5576 5576 5576 5576 5577 5577 5577 5577 5577 5577 5577 5577 5577 5577 5578 5578 5578 5578 5578 5578 5578 5578 5577 5577 5577 5577